TimeCDT,TemperatureF,Dew PointF,Humidity,Sea Level PressureIn,VisibilityMPH,Wind Direction,Wind SpeedMPH,Gust SpeedMPH,PrecipitationIn,Events,Conditions,WindDirDegrees,DateUTC
12:55 AM,45.9,45.9,100,29.81,10.0,SSE,5.8,-,N/A,,Clear,160,2012-03-12 05:55:00
1:55 AM,44.6,43.9,97,29.80,10.0,South,5.8,-,N/A,,Clear,170,2012-03-12 06:55:00
2:55 AM,46.0,41.4,84,29.80,10.0,South,6.9,-,N/A,,Clear,170,2012-03-12 07:55:00
3:55 AM,44.2,40.6,87,29.80,10.0,SE,4.6,-,N/A,,Clear,140,2012-03-12 08:55:00
4:55 AM,43.2,39.2,86,29.81,10.0,SSE,3.5,-,N/A,,Clear,150,2012-03-12 09:55:00
5:55 AM,40.8,37.6,88,29.82,10.0,SSE,9.2,-,N/A,,Clear,150,2012-03-12 10:55:00
6:55 AM,40.6,37.6,89,29.84,10.0,SSE,8.1,-,N/A,,Clear,150,2012-03-12 11:55:00
7:55 AM,39.2,37.2,93,29.88,10.0,ESE,3.5,-,N/A,,Clear,110,2012-03-12 12:55:00
8:55 AM,41.5,40.5,96,29.91,10.0,SE,4.6,-,N/A,,Clear,140,2012-03-12 13:55:00
9:55 AM,49.8,41.7,74,29.93,10.0,South,8.1,-,N/A,,Clear,170,2012-03-12 14:55:00
10:55 AM,57.0,42.1,57,29.94,10.0,South,6.9,-,N/A,,Clear,190,2012-03-12 15:55:00
11:55 AM,63.1,44.8,51,29.94,10.0,WSW,9.2,-,N/A,,Clear,240,2012-03-12 16:55:00
12:55 PM,68.0,42.1,39,29.94,10.0,SW,6.9,-,N/A,,Clear,230,2012-03-12 17:55:00
1:55 PM,71.1,43.9,38,29.93,10.0,SW,6.9,-,N/A,,Clear,230,2012-03-12 18:55:00
2:55 PM,74.1,45.0,35,29.90,10.0,SSW,8.1,-,N/A,,Clear,210,2012-03-12 19:55:00
3:55 PM,77.2,43.5,30,29.89,10.0,SW,6.9,-,N/A,,Clear,220,2012-03-12 20:55:00
4:55 PM,78.3,41.4,27,29.88,10.0,SSE,5.8,-,N/A,,Clear,150,2012-03-12 21:55:00
5:55 PM,79.5,46.0,31,29.88,10.0,East,6.9,-,N/A,,Clear,90,2012-03-12 22:55:00
6:55 PM,75.6,55.8,50,29.88,10.0,ENE,6.9,-,N/A,,Clear,60,2012-03-12 23:55:00
7:55 PM,63.7,53.4,69,29.90,10.0,ENE,10.4,-,N/A,,Clear,60,2012-03-13 00:55:00
8:55 PM,58.8,51.4,76,29.91,10.0,East,5.8,-,N/A,,Clear,100,2012-03-13 01:55:00
9:55 PM,56.5,48.0,73,29.92,10.0,East,6.9,-,N/A,,Clear,100,2012-03-13 02:55:00
10:55 PM,52.9,46.6,79,29.93,10.0,ESE,6.9,-,N/A,,Clear,110,2012-03-13 03:55:00
11:55 PM,50.5,43.7,77,29.94,10.0,ESE,5.8,-,N/A,,Clear,120,2012-03-13 04:55:00